Time,TemperatureF,DewpointF,PressureIn,WindDirection,WindDirectionDegrees,WindSpeedMPH,WindSpeedGustMPH,Humidity,HourlyPrecipIn,Conditions,Clouds,dailyrainin,SoftwareType,DateUTC
2013-03-12 00:03:00,44.6,44.1,30.24,North,355,1.0,12.0,98,0.00,,,0.00,Wunderground v.1.15,2013-03-12 07:03:00,
2013-03-12 00:09:00,44.5,44.0,30.25,North,355,1.0,12.0,98,0.00,,,0.00,Wunderground v.1.15,2013-03-12 07:09:00,
2013-03-12 00:15:00,44.7,44.4,30.24,North,355,1.0,2.0,99,0.00,,,0.00,Wunderground v.1.15,2013-03-12 07:15:00,
2013-03-12 00:20:00,44.8,44.5,30.24,North,355,1.0,3.0,99,0.00,,,0.00,Wunderground v.1.15,2013-03-12 07:20:00,
2013-03-12 00:25:00,44.8,44.3,30.24,North,355,2.0,4.0,98,0.00,,,0.00,Wunderground v.1.15,2013-03-12 07:25:00,
2013-03-12 00:30:00,44.7,44.2,30.24,North,355,2.0,3.0,98,0.00,,,0.00,Wunderground v.1.15,2013-03-12 07:30:00,
2013-03-12 00:36:00,44.8,44.5,30.24,North,355,1.0,3.0,99,0.00,,,0.00,Wunderground v.1.15,2013-03-12 07:36:00,
2013-03-12 00:41:00,44.9,44.6,30.24,North,355,1.0,2.0,99,0.00,,,0.00,Wunderground v.1.15,2013-03-12 07:41:00,
2013-03-12 00:47:00,44.8,44.3,30.24,North,355,1.0,3.0,98,0.00,,,0.00,Wunderground v.1.15,2013-03-12 07:47:00,
2013-03-12 00:52:00,44.5,44.0,30.24,North,355,1.0,2.0,98,0.00,,,0.00,Wunderground v.1.15,2013-03-12 07:52:00,
2013-03-12 00:57:00,44.4,43.9,30.24,North,355,1.0,3.0,98,0.00,,,0.00,Wunderground v.1.15,2013-03-12 07:57:00,
2013-03-12 01:03:00,44.2,43.9,30.24,North,355,1.0,5.0,99,0.00,,,0.00,Wunderground v.1.15,2013-03-12 08:03:00,
2013-03-12 01:09:00,44.2,43.9,30.23,North,355,2.0,5.0,99,0.00,,,0.00,Wunderground v.1.15,2013-03-12 08:09:00,
2013-03-12 01:15:00,44.1,43.8,30.23,North,355,2.0,5.0,99,0.00,,,0.00,Wunderground v.1.15,2013-03-12 08:15:00,
2013-03-12 01:22:00,44.0,43.5,30.23,North,355,2.0,5.0,98,0.00,,,0.00,Wunderground v.1.15,2013-03-12 08:22:00,
2013-03-12 01:27:00,43.9,43.4,30.23,North,355,2.0,5.0,98,0.00,,,0.00,Wunderground v.1.15,2013-03-12 08:27:00,
2013-03-12 01:32:00,43.9,43.6,30.23,North,355,1.0,5.0,99,0.00,,,0.00,Wunderground v.1.15,2013-03-12 08:32:00,
2013-03-12 01:38:00,43.9,43.6,30.23,North,355,1.0,5.0,99,0.00,,,0.00,Wunderground v.1.15,2013-03-12 08:38:00,
2013-03-12 01:44:00,44.0,43.7,30.23,North,355,1.0,5.0,99,0.00,,,0.00,Wunderground v.1.15,2013-03-12 08:44:00,
2013-03-12 01:50:00,44.1,43.8,30.23,North,355,1.0,5.0,99,0.00,,,0.00,Wunderground v.1.15,2013-03-12 08:50:00,
2013-03-12 01:57:00,44.3,44.0,30.23,North,355,2.0,5.0,99,0.00,,,0.00,Wunderground v.1.15,2013-03-12 08:57:00,
2013-03-12 02:02:00,44.4,44.1,30.23,North,355,3.0,5.0,99,0.00,,,0.00,Wunderground v.1.15,2013-03-12 09:02:00,
2013-03-12 02:08:00,44.5,44.2,30.23,North,355,3.0,5.0,99,0.00,,,0.00,Wunderground v.1.15,2013-03-12 09:08:00,
2013-03-12 02:14:00,44.4,44.1,30.23,North,355,3.0,5.0,99,0.00,,,0.00,Wunderground v.1.15,2013-03-12 09:14:00,
2013-03-12 02:19:00,44.3,44.0,30.23,North,355,3.0,5.0,99,0.00,,,0.00,Wunderground v.1.15,2013-03-12 09:19:00,
2013-03-12 02:25:00,44.2,43.9,30.23,North,355,2.0,5.0,99,0.00,,,0.00,Wunderground v.1.15,2013-03-12 09:25:00,
2013-03-12 02:31:00,44.2,43.9,30.23,North,355,1.0,5.0,99,0.00,,,0.00,Wunderground v.1.15,2013-03-12 09:31:00,
2013-03-12 02:37:00,44.1,43.8,30.23,North,355,1.0,5.0,99,0.00,,,0.00,Wunderground v.1.15,2013-03-12 09:37:00,
2013-03-12 02:42:00,44.1,43.8,30.23,North,355,2.0,5.0,99,0.00,,,0.00,Wunderground v.1.15,2013-03-12 09:42:00,
2013-03-12 02:47:00,44.0,43.7,30.22,North,355,2.0,5.0,99,0.00,,,0.00,Wunderground v.1.15,2013-03-12 09:47:00,
2013-03-12 02:53:00,44.0,43.7,30.22,North,355,2.0,5.0,99,0.00,,,0.00,Wunderground v.1.15,2013-03-12 09:53:00,
2013-03-12 02:59:00,44.0,43.7,30.22,North,355,1.0,5.0,99,0.00,,,0.00,Wunderground v.1.15,2013-03-12 09:59:00,
2013-03-12 03:04:00,43.9,43.6,30.22,North,355,0.0,5.0,99,0.00,,,0.00,Wunderground v.1.15,2013-03-12 10:04:00,
2013-03-12 03:10:00,43.9,43.6,30.22,North,355,0.0,5.0,99,0.00,,,0.00,Wunderground v.1.15,2013-03-12 10:10:00,
2013-03-12 03:15:00,43.8,43.5,30.22,North,355,0.0,5.0,99,0.00,,,0.00,Wunderground v.1.15,2013-03-12 10:15:00,
2013-03-12 03:21:00,43.8,43.5,30.22,North,355,0.0,5.0,99,0.00,,,0.00,Wunderground v.1.15,2013-03-12 10:21:00,
2013-03-12 03:27:00,43.7,43.4,30.23,North,355,1.0,5.0,99,0.00,,,0.00,Wunderground v.1.15,2013-03-12 10:27:00,
2013-03-12 03:32:00,43.6,43.3,30.22,North,355,1.0,5.0,99,0.00,,,0.00,Wunderground v.1.15,2013-03-12 10:32:00,
2013-03-12 03:38:00,43.5,43.2,30.22,North,355,1.0,5.0,99,0.00,,,0.00,Wunderground v.1.15,2013-03-12 10:38:00,
2013-03-12 03:44:00,43.4,43.1,30.22,North,355,1.0,5.0,99,0.00,,,0.00,Wunderground v.1.15,2013-03-12 10:44:00,
2013-03-12 03:49:00,43.3,43.0,30.21,North,355,1.0,5.0,99,0.00,,,0.00,Wunderground v.1.15,2013-03-12 10:49:00,
2013-03-12 03:55:00,43.2,42.9,30.21,North,355,0.0,5.0,99,0.00,,,0.00,Wunderground v.1.15,2013-03-12 10:55:00,
2013-03-12 04:00:00,43.3,43.0,30.21,North,355,0.0,5.0,99,0.00,,,0.00,Wunderground v.1.15,2013-03-12 11:00:00,
2013-03-12 04:06:00,43.4,43.1,30.21,North,355,1.0,5.0,99,0.00,,,0.00,Wunderground v.1.15,2013-03-12 11:06:00,
2013-03-12 04:12:00,43.4,43.1,30.20,North,355,2.0,5.0,99,0.00,,,0.00,Wunderground v.1.15,2013-03-12 11:12:00,
2013-03-12 04:18:00,43.4,43.1,30.20,North,355,1.0,5.0,99,0.00,,,0.00,Wunderground v.1.15,2013-03-12 11:18:00,
2013-03-12 04:24:00,43.4,43.1,30.20,North,355,1.0,5.0,99,0.00,,,0.00,Wunderground v.1.15,2013-03-12 11:24:00,
2013-03-12 04:29:00,43.5,43.2,30.20,North,355,1.0,5.0,99,0.00,,,0.00,Wunderground v.1.15,2013-03-12 11:29:00,
2013-03-12 04:34:00,43.5,43.2,30.20,North,355,1.0,5.0,99,0.00,,,0.00,Wunderground v.1.15,2013-03-12 11:34:00,
2013-03-12 04:40:00,43.5,43.2,30.20,North,355,2.0,2.0,99,0.00,,,0.00,Wunderground v.1.15,2013-03-12 11:40:00,
2013-03-12 04:45:00,43.5,43.2,30.20,North,355,1.0,5.0,99,0.00,,,0.00,Wunderground v.1.15,2013-03-12 11:45:00,
2013-03-12 04:51:00,43.5,43.2,30.21,North,355,1.0,5.0,99,0.00,,,0.00,Wunderground v.1.15,2013-03-12 11:51:00,
2013-03-12 04:57:00,43.5,43.2,30.20,North,355,1.0,5.0,99,0.00,,,0.00,Wunderground v.1.15,2013-03-12 11:57:00,
2013-03-12 05:02:00,43.5,43.2,30.21,North,355,1.0,5.0,99,0.00,,,0.00,Wunderground v.1.15,2013-03-12 12:02:00,
2013-03-12 05:08:00,43.5,43.2,30.21,North,355,0.0,5.0,99,0.00,,,0.00,Wunderground v.1.15,2013-03-12 12:08:00,
2013-03-12 05:14:00,43.5,43.2,30.21,North,355,0.0,5.0,99,0.00,,,0.00,Wunderground v.1.15,2013-03-12 12:14:00,
2013-03-12 05:19:00,43.5,43.2,30.22,North,355,0.0,5.0,99,0.00,,,0.00,Wunderground v.1.15,2013-03-12 12:19:00,
2013-03-12 05:24:00,43.7,43.4,30.22,North,355,1.0,5.0,99,0.00,,,0.00,Wunderground v.1.15,2013-03-12 12:24:00,
2013-03-12 05:29:00,43.8,43.5,30.22,North,355,1.0,5.0,99,0.00,,,0.00,Wunderground v.1.15,2013-03-12 12:29:00,
2013-03-12 05:34:00,43.8,43.5,30.23,North,355,2.0,5.0,99,0.00,,,0.00,Wunderground v.1.15,2013-03-12 12:34:00,
2013-03-12 05:40:00,43.8,43.5,30.23,North,355,1.0,5.0,99,0.00,,,0.00,Wunderground v.1.15,2013-03-12 12:40:00,
2013-03-12 05:46:00,43.8,43.5,30.23,North,355,1.0,5.0,99,0.00,,,0.00,Wunderground v.1.15,2013-03-12 12:46:00,
2013-03-12 05:53:00,43.8,43.5,30.22,North,355,0.0,5.0,99,0.00,,,0.00,Wunderground v.1.15,2013-03-12 12:53:00,
2013-03-12 05:59:00,43.8,43.5,30.22,North,355,0.0,5.0,99,0.00,,,0.00,Wunderground v.1.15,2013-03-12 12:59:00,
2013-03-12 06:04:00,43.8,43.5,30.21,North,355,1.0,5.0,99,0.00,,,0.00,Wunderground v.1.15,2013-03-12 13:04:00,
2013-03-12 06:10:00,43.9,43.6,30.22,North,355,2.0,5.0,99,0.00,,,0.00,Wunderground v.1.15,2013-03-12 13:10:00,
2013-03-12 06:15:00,43.9,43.6,30.21,North,355,2.0,5.0,99,0.00,,,0.00,Wunderground v.1.15,2013-03-12 13:15:00,
2013-03-12 06:22:00,43.9,43.6,30.21,North,355,1.0,5.0,99,0.00,,,0.00,Wunderground v.1.15,2013-03-12 13:22:00,
2013-03-12 06:27:00,43.8,43.5,30.21,North,355,1.0,5.0,99,0.00,,,0.00,Wunderground v.1.15,2013-03-12 13:27:00,
2013-03-12 06:33:00,43.9,43.6,30.21,North,355,1.0,5.0,99,0.00,,,0.00,Wunderground v.1.15,2013-03-12 13:33:00,
2013-03-12 06:38:00,43.9,43.6,30.21,North,355,0.0,5.0,99,0.00,,,0.00,Wunderground v.1.15,2013-03-12 13:38:00,
2013-03-12 06:43:00,43.9,43.6,30.22,North,355,1.0,5.0,99,0.00,,,0.00,Wunderground v.1.15,2013-03-12 13:43:00,
2013-03-12 06:49:00,43.9,43.6,30.22,North,355,1.0,5.0,99,0.00,,,0.00,Wunderground v.1.15,2013-03-12 13:49:00,
2013-03-12 06:54:00,43.9,43.6,30.21,North,355,1.0,5.0,99,0.00,,,0.00,Wunderground v.1.15,2013-03-12 13:54:00,
2013-03-12 06:59:00,43.8,43.5,30.21,North,355,1.0,5.0,99,0.00,,,0.00,Wunderground v.1.15,2013-03-12 13:59:00,
2013-03-12 07:05:00,43.8,43.5,30.21,North,355,1.0,5.0,99,0.00,,,0.00,Wunderground v.1.15,2013-03-12 14:05:00,
2013-03-12 07:10:00,43.8,43.5,30.21,North,355,0.0,5.0,99,0.00,,,0.00,Wunderground v.1.15,2013-03-12 14:10:00,
2013-03-12 07:16:00,43.8,43.5,30.22,North,355,0.0,5.0,99,0.00,,,0.00,Wunderground v.1.15,2013-03-12 14:16:00,
2013-03-12 07:22:00,43.8,43.5,30.22,North,355,0.0,5.0,99,0.00,,,0.00,Wunderground v.1.15,2013-03-12 14:22:00,
2013-03-12 07:27:00,43.8,43.5,30.22,North,355,0.0,5.0,99,0.00,,,0.00,Wunderground v.1.15,2013-03-12 14:27:00,
2013-03-12 07:32:00,43.8,43.5,30.22,North,355,0.0,5.0,99,0.00,,,0.00,Wunderground v.1.15,2013-03-12 14:32:00,
2013-03-12 07:38:00,43.9,43.6,30.22,North,355,0.0,5.0,99,0.00,,,0.00,Wunderground v.1.15,2013-03-12 14:38:00,
2013-03-12 07:43:00,43.9,43.6,30.22,North,355,0.0,5.0,99,0.00,,,0.00,Wunderground v.1.15,2013-03-12 14:43:00,
2013-03-12 07:49:00,44.0,43.7,30.22,North,355,0.0,5.0,99,0.00,,,0.00,Wunderground v.1.15,2013-03-12 14:49:00,
2013-03-12 07:54:00,44.1,43.8,30.22,North,355,0.0,5.0,99,0.00,,,0.00,Wunderground v.1.15,2013-03-12 14:54:00,
2013-03-12 07:59:00,44.1,43.8,30.23,North,355,0.0,5.0,99,0.00,,,0.00,Wunderground v.1.15,2013-03-12 14:59:00,
2013-03-12 08:05:00,44.2,43.9,30.23,North,355,0.0,5.0,99,0.00,,,0.00,Wunderground v.1.15,2013-03-12 15:05:00,
2013-03-12 08:12:00,44.3,44.0,30.23,North,355,0.0,5.0,99,0.00,,,0.00,Wunderground v.1.15,2013-03-12 15:12:00,
2013-03-12 08:17:00,44.5,44.2,30.23,North,355,0.0,5.0,99,0.00,,,0.00,Wunderground v.1.15,2013-03-12 15:17:00,
2013-03-12 08:22:00,44.5,44.2,30.23,North,355,0.0,5.0,99,0.00,,,0.00,Wunderground v.1.15,2013-03-12 15:22:00,
2013-03-12 08:28:00,44.7,44.4,30.23,North,355,0.0,5.0,99,0.00,,,0.00,Wunderground v.1.15,2013-03-12 15:28:00,
2013-03-12 08:33:00,44.8,44.5,30.23,North,355,0.0,5.0,99,0.00,,,0.00,Wunderground v.1.15,2013-03-12 15:33:00,
2013-03-12 08:39:00,44.8,44.5,30.23,North,355,0.0,5.0,99,0.00,,,0.00,Wunderground v.1.15,2013-03-12 15:39:00,
2013-03-12 08:44:00,44.9,44.6,30.23,North,355,0.0,5.0,99,0.00,,,0.00,Wunderground v.1.15,2013-03-12 15:44:00,
2013-03-12 08:50:00,45.2,44.9,30.23,North,355,0.0,5.0,99,0.00,,,0.00,Wunderground v.1.15,2013-03-12 15:50:00,
2013-03-12 08:56:00,45.5,45.2,30.23,North,355,0.0,5.0,99,0.00,,,0.00,Wunderground v.1.15,2013-03-12 15:56:00,
2013-03-12 09:01:00,45.5,45.2,30.23,North,355,0.0,5.0,99,0.00,,,0.00,Wunderground v.1.15,2013-03-12 16:01:00,
2013-03-12 09:07:00,45.3,45.0,30.24,North,355,1.0,5.0,99,0.00,,,0.00,Wunderground v.1.15,2013-03-12 16:07:00,
2013-03-12 09:13:00,45.2,44.9,30.24,North,355,1.0,5.0,99,0.00,,,0.00,Wunderground v.1.15,2013-03-12 16:13:00,
2013-03-12 09:18:00,45.4,45.1,30.24,North,355,0.0,5.0,99,0.00,,,0.00,Wunderground v.1.15,2013-03-12 16:18:00,
2013-03-12 09:24:00,45.8,45.5,30.24,North,355,0.0,5.0,99,0.00,,,0.00,Wunderground v.1.15,2013-03-12 16:24:00,
2013-03-12 09:30:00,45.9,45.6,30.24,North,355,0.0,5.0,99,0.00,,,0.00,Wunderground v.1.15,2013-03-12 16:30:00,
2013-03-12 09:36:00,45.6,45.3,30.24,North,355,1.0,5.0,99,0.00,,,0.00,Wunderground v.1.15,2013-03-12 16:36:00,
2013-03-12 09:42:00,45.5,45.2,30.24,North,355,1.0,5.0,99,0.00,,,0.00,Wunderground v.1.15,2013-03-12 16:42:00,
2013-03-12 09:47:00,45.8,45.5,30.24,North,355,1.0,5.0,99,0.00,,,0.00,Wunderground v.1.15,2013-03-12 16:47:00,
2013-03-12 09:52:00,46.2,45.9,30.24,North,355,0.0,5.0,99,0.00,,,0.00,Wunderground v.1.15,2013-03-12 16:52:00,
2013-03-12 09:57:00,46.7,46.4,30.24,North,355,0.0,5.0,99,0.00,,,0.00,Wunderground v.1.15,2013-03-12 16:57:00,
2013-03-12 10:03:00,47.6,47.6,30.24,North,355,0.0,5.0,100,0.00,,,0.00,Wunderground v.1.15,2013-03-12 17:03:00,
2013-03-12 10:09:00,48.1,48.1,30.24,North,355,0.0,5.0,100,0.00,,,0.00,Wunderground v.1.15,2013-03-12 17:09:00,
2013-03-12 10:14:00,47.8,47.5,30.24,North,355,1.0,5.0,99,0.00,,,0.00,Wunderground v.1.15,2013-03-12 17:14:00,
2013-03-12 10:19:00,47.6,47.3,30.24,North,355,2.0,5.0,99,0.00,,,0.00,Wunderground v.1.15,2013-03-12 17:19:00,
2013-03-12 10:25:00,47.7,47.4,30.23,North,355,1.0,5.0,99,0.00,,,0.00,Wunderground v.1.15,2013-03-12 17:25:00,
2013-03-12 10:32:00,48.9,48.9,30.24,North,355,0.0,5.0,100,0.00,,,0.00,Wunderground v.1.15,2013-03-12 17:32:00,
2013-03-12 10:37:00,48.8,48.5,30.24,North,355,1.0,5.0,99,0.00,,,0.00,Wunderground v.1.15,2013-03-12 17:37:00,
2013-03-12 10:42:00,48.4,48.1,30.24,North,355,2.0,5.0,99,0.00,,,0.00,Wunderground v.1.15,2013-03-12 17:42:00,
2013-03-12 10:47:00,48.3,48.0,30.23,North,355,2.0,5.0,99,0.00,,,0.00,Wunderground v.1.15,2013-03-12 17:47:00,
2013-03-12 10:53:00,48.3,48.0,30.22,North,355,1.0,5.0,99,0.00,,,0.00,Wunderground v.1.15,2013-03-12 17:53:00,
2013-03-12 10:58:00,48.8,48.5,30.23,North,355,1.0,5.0,99,0.00,,,0.00,Wunderground v.1.15,2013-03-12 17:58:00,
2013-03-12 11:03:00,48.6,48.3,30.23,North,355,1.0,5.0,99,0.00,,,0.00,Wunderground v.1.15,2013-03-12 18:03:00,
2013-03-12 11:09:00,48.5,48.2,30.24,North,355,2.0,5.0,99,0.00,,,0.00,Wunderground v.1.15,2013-03-12 18:09:00,
2013-03-12 11:15:00,48.3,48.0,30.24,North,355,1.0,5.0,99,0.00,,,0.00,Wunderground v.1.15,2013-03-12 18:15:00,
2013-03-12 11:21:00,48.5,48.2,30.23,North,355,1.0,5.0,99,0.00,,,0.00,Wunderground v.1.15,2013-03-12 18:21:00,
2013-03-12 11:26:00,48.9,48.6,30.23,North,355,0.0,5.0,99,0.00,,,0.00,Wunderground v.1.15,2013-03-12 18:26:00,
2013-03-12 11:32:00,49.2,48.9,30.24,North,355,0.0,5.0,99,0.00,,,0.00,Wunderground v.1.15,2013-03-12 18:32:00,
2013-03-12 11:38:00,47.7,46.9,30.24,West,277,3.0,6.0,97,0.00,,,0.00,Wunderground v.1.15,2013-03-12 18:38:00,
2013-03-12 11:44:00,47.2,46.7,30.23,West,277,4.0,5.0,98,0.00,,,0.00,Wunderground v.1.15,2013-03-12 18:44:00,
2013-03-12 11:49:00,47.1,46.6,30.23,West,277,3.0,5.0,98,0.00,,,0.00,Wunderground v.1.15,2013-03-12 18:49:00,
2013-03-12 11:55:00,47.1,46.6,30.23,West,277,3.0,5.0,98,0.00,,,0.00,Wunderground v.1.15,2013-03-12 18:55:00,
2013-03-12 12:00:00,47.1,46.6,30.23,West,277,3.0,5.0,98,0.00,,,0.00,Wunderground v.1.15,2013-03-12 19:00:00,
2013-03-12 12:06:00,47.2,46.7,30.23,West,277,3.0,5.0,98,0.00,,,0.00,Wunderground v.1.15,2013-03-12 19:06:00,
2013-03-12 12:11:00,47.5,47.0,30.23,West,277,3.0,4.0,98,0.00,,,0.00,Wunderground v.1.15,2013-03-12 19:11:00,
2013-03-12 12:17:00,47.5,47.0,30.23,West,277,3.0,5.0,98,0.00,,,0.00,Wunderground v.1.15,2013-03-12 19:17:00,
2013-03-12 12:22:00,47.5,47.0,30.23,West,277,3.0,5.0,98,0.00,,,0.00,Wunderground v.1.15,2013-03-12 19:22:00,
2013-03-12 12:28:00,47.6,47.1,30.23,West,277,3.0,5.0,98,0.00,,,0.00,Wunderground v.1.15,2013-03-12 19:28:00,
2013-03-12 12:33:00,47.6,47.1,30.23,West,277,3.0,5.0,98,0.00,,,0.00,Wunderground v.1.15,2013-03-12 19:33:00,
2013-03-12 12:39:00,47.7,47.2,30.23,West,277,3.0,5.0,98,0.00,,,0.00,Wunderground v.1.15,2013-03-12 19:39:00,
2013-03-12 12:44:00,47.7,47.2,30.24,NW,306,4.0,6.0,98,0.00,,,0.00,Wunderground v.1.15,2013-03-12 19:44:00,
2013-03-12 12:50:00,47.9,47.4,30.24,NW,311,5.0,5.0,98,0.00,,,0.00,Wunderground v.1.15,2013-03-12 19:50:00,
2013-03-12 12:56:00,48.0,47.5,30.23,NW,311,4.0,5.0,98,0.00,,,0.00,Wunderground v.1.15,2013-03-12 19:56:00,
2013-03-12 13:01:00,48.3,47.8,30.23,NW,311,4.0,6.0,98,0.00,,,0.00,Wunderground v.1.15,2013-03-12 20:01:00,
2013-03-12 13:07:00,48.4,47.9,30.23,NW,311,4.0,6.0,98,0.00,,,0.00,Wunderground v.1.15,2013-03-12 20:07:00,
2013-03-12 13:12:00,48.6,48.1,30.23,NW,311,3.0,5.0,98,0.00,,,0.00,Wunderground v.1.15,2013-03-12 20:12:00,
2013-03-12 13:18:00,48.5,47.7,30.23,NW,311,4.0,5.0,97,0.00,,,0.00,Wunderground v.1.15,2013-03-12 20:18:00,
2013-03-12 13:23:00,48.3,47.5,30.23,NW,311,4.0,6.0,97,0.00,,,0.00,Wunderground v.1.15,2013-03-12 20:23:00,
2013-03-12 13:28:00,48.3,47.5,30.22,NW,311,4.0,6.0,97,0.00,,,0.00,Wunderground v.1.15,2013-03-12 20:28:00,
2013-03-12 13:34:00,48.3,47.5,30.22,NW,311,4.0,5.0,97,0.00,,,0.00,Wunderground v.1.15,2013-03-12 20:34:00,
2013-03-12 13:39:00,48.1,47.6,30.22,NW,311,4.0,5.0,98,0.00,,,0.00,Wunderground v.1.15,2013-03-12 20:39:00,
2013-03-12 13:45:00,47.8,47.0,30.22,NW,311,5.0,5.0,97,0.00,,,0.01,Wunderground v.1.15,2013-03-12 20:45:00,
2013-03-12 13:52:00,47.6,47.1,30.22,NW,311,4.0,5.0,98,0.00,,,0.01,Wunderground v.1.15,2013-03-12 20:52:00,
2013-03-12 13:58:00,47.6,47.1,30.21,NW,311,4.0,5.0,98,0.00,,,0.01,Wunderground v.1.15,2013-03-12 20:58:00,
2013-03-12 14:04:00,47.4,46.9,30.22,NW,311,3.0,5.0,98,0.00,,,0.01,Wunderground v.1.15,2013-03-12 21:04:00,
2013-03-12 14:09:00,47.5,47.0,30.22,NW,311,3.0,5.0,98,0.00,,,0.01,Wunderground v.1.15,2013-03-12 21:09:00,
2013-03-12 14:15:00,47.5,47.0,30.22,NW,311,4.0,5.0,98,0.00,,,0.01,Wunderground v.1.15,2013-03-12 21:15:00,
2013-03-12 14:20:00,47.5,47.0,30.22,NW,311,4.0,5.0,98,0.00,,,0.01,Wunderground v.1.15,2013-03-12 21:20:00,
2013-03-12 14:25:00,47.6,47.1,30.22,NW,311,3.0,5.0,98,0.00,,,0.01,Wunderground v.1.15,2013-03-12 21:25:00,
2013-03-12 14:31:00,47.9,47.4,30.23,NW,311,3.0,5.0,98,0.00,,,0.01,Wunderground v.1.15,2013-03-12 21:31:00,
2013-03-12 14:38:00,48.3,47.8,30.23,NW,311,3.0,5.0,98,0.00,,,0.01,Wunderground v.1.15,2013-03-12 21:38:00,
2013-03-12 14:43:00,48.3,47.8,30.22,NW,311,4.0,5.0,98,0.00,,,0.01,Wunderground v.1.15,2013-03-12 21:43:00,
2013-03-12 14:48:00,48.4,47.9,30.22,NW,311,4.0,5.0,98,0.00,,,0.01,Wunderground v.1.15,2013-03-12 21:48:00,
2013-03-12 14:54:00,48.6,48.1,30.22,NW,316,5.0,7.0,98,0.00,,,0.01,Wunderground v.1.15,2013-03-12 21:54:00,
2013-03-12 15:00:00,48.2,47.4,30.22,NW,317,6.0,7.0,97,0.00,,,0.01,Wunderground v.1.15,2013-03-12 22:00:00,
2013-03-12 15:06:00,48.1,47.6,30.21,NW,317,5.0,7.0,98,0.00,,,0.01,Wunderground v.1.15,2013-03-12 22:06:00,
2013-03-12 15:12:00,48.4,47.6,30.21,NW,319,4.0,5.0,97,0.00,,,0.01,Wunderground v.1.15,2013-03-12 22:12:00,
2013-03-12 15:18:00,48.2,47.4,30.22,NW,319,4.0,5.0,97,0.00,,,0.01,Wunderground v.1.15,2013-03-12 22:18:00,
2013-03-12 15:23:00,48.0,47.2,30.21,NW,319,4.0,5.0,97,0.00,,,0.01,Wunderground v.1.15,2013-03-12 22:23:00,
2013-03-12 15:29:00,47.8,47.0,30.21,NW,319,4.0,5.0,97,0.00,,,0.01,Wunderground v.1.15,2013-03-12 22:29:00,
2013-03-12 15:34:00,47.5,46.7,30.20,NNW,329,4.0,6.0,97,0.00,,,0.01,Wunderground v.1.15,2013-03-12 22:34:00,
2013-03-12 15:39:00,47.0,46.2,30.21,NNW,333,5.0,7.0,97,0.00,,,0.01,Wunderground v.1.15,2013-03-12 22:39:00,
2013-03-12 15:44:00,47.1,46.3,30.20,NNW,333,4.0,5.0,97,0.00,,,0.01,Wunderground v.1.15,2013-03-12 22:44:00,
2013-03-12 15:49:00,46.9,46.4,30.20,NNW,333,4.0,5.0,98,0.00,,,0.01,Wunderground v.1.15,2013-03-12 22:49:00,
2013-03-12 15:55:00,47.1,46.6,30.21,NNW,333,3.0,5.0,98,0.00,,,0.01,Wunderground v.1.15,2013-03-12 22:55:00,
2013-03-12 16:00:00,47.2,46.7,30.20,NNW,333,3.0,5.0,98,0.00,,,0.01,Wunderground v.1.15,2013-03-12 23:00:00,
2013-03-12 16:06:00,47.0,46.2,30.20,NNW,333,4.0,5.0,97,0.00,,,0.01,Wunderground v.1.15,2013-03-12 23:06:00,
2013-03-12 16:12:00,47.0,46.5,30.20,NNW,333,3.0,5.0,98,0.00,,,0.01,Wunderground v.1.15,2013-03-12 23:12:00,
2013-03-12 16:18:00,47.1,46.6,30.21,NNW,331,3.0,6.0,98,0.00,,,0.01,Wunderground v.1.15,2013-03-12 23:18:00,
2013-03-12 16:23:00,47.2,46.7,30.21,NNW,327,4.0,5.0,98,0.00,,,0.01,Wunderground v.1.15,2013-03-12 23:23:00,
2013-03-12 16:28:00,47.0,46.5,30.21,NNW,327,4.0,6.0,98,0.00,,,0.01,Wunderground v.1.15,2013-03-12 23:28:00,
2013-03-12 16:33:00,46.8,46.3,30.21,NW,319,5.0,6.0,98,0.00,,,0.01,Wunderground v.1.15,2013-03-12 23:33:00,
2013-03-12 16:39:00,46.5,46.0,30.21,NW,306,6.0,8.0,98,0.00,,,0.01,Wunderground v.1.15,2013-03-12 23:39:00,
2013-03-12 16:45:00,46.2,45.7,30.21,NW,312,7.0,8.0,98,0.00,,,0.01,Wunderground v.1.15,2013-03-12 23:45:00,
2013-03-12 16:50:00,46.1,45.6,30.21,NW,322,6.0,7.0,98,0.00,,,0.01,Wunderground v.1.15,2013-03-12 23:50:00,
2013-03-12 16:56:00,45.8,45.3,30.21,NW,319,6.0,7.0,98,0.00,,,0.01,Wunderground v.1.15,2013-03-12 23:56:00,
2013-03-12 17:02:00,45.8,45.3,30.21,NW,325,5.0,6.0,98,0.00,,,0.01,Wunderground v.1.15,2013-03-13 00:02:00,
2013-03-12 17:07:00,45.8,45.3,30.21,NW,325,4.0,6.0,98,0.00,,,0.01,Wunderground v.1.15,2013-03-13 00:07:00,
2013-03-12 17:13:00,45.7,45.2,30.21,NNW,344,4.0,6.0,98,0.00,,,0.01,Wunderground v.1.15,2013-03-13 00:13:00,
2013-03-12 17:18:00,45.8,45.3,30.22,NNW,327,4.0,7.0,98,0.00,,,0.01,Wunderground v.1.15,2013-03-13 00:18:00,
2013-03-12 17:23:00,45.8,45.3,30.22,NW,321,5.0,6.0,98,0.00,,,0.01,Wunderground v.1.15,2013-03-13 00:23:00,
2013-03-12 17:28:00,45.8,45.3,30.22,NW,322,4.0,6.0,98,0.00,,,0.01,Wunderground v.1.15,2013-03-13 00:28:00,
2013-03-12 17:34:00,45.8,45.3,30.21,NW,322,4.0,5.0,98,0.00,,,0.01,Wunderground v.1.15,2013-03-13 00:34:00,
2013-03-12 17:39:00,45.9,45.4,30.21,NW,322,3.0,5.0,98,0.00,,,0.01,Wunderground v.1.15,2013-03-13 00:39:00,
2013-03-12 17:44:00,45.9,45.4,30.21,NW,322,3.0,5.0,98,0.00,,,0.01,Wunderground v.1.15,2013-03-13 00:44:00,
2013-03-12 17:50:00,45.9,45.4,30.21,NW,322,2.0,5.0,98,0.00,,,0.01,Wunderground v.1.15,2013-03-13 00:50:00,
2013-03-12 17:55:00,46.0,45.7,30.20,NW,322,1.0,5.0,99,0.00,,,0.01,Wunderground v.1.15,2013-03-13 00:55:00,
2013-03-12 18:01:00,46.0,45.7,30.20,NW,322,1.0,5.0,99,0.00,,,0.01,Wunderground v.1.15,2013-03-13 01:01:00,
2013-03-12 18:07:00,46.1,45.8,30.21,NW,322,1.0,5.0,99,0.00,,,0.01,Wunderground v.1.15,2013-03-13 01:07:00,
2013-03-12 18:12:00,46.1,45.8,30.22,NW,316,3.0,5.0,99,0.00,,,0.01,Wunderground v.1.15,2013-03-13 01:12:00,
2013-03-12 18:17:00,46.0,45.5,30.22,WNW,302,4.0,5.0,98,0.00,,,0.01,Wunderground v.1.15,2013-03-13 01:17:00,
2013-03-12 18:23:00,45.8,45.3,30.22,WNW,283,4.0,6.0,98,0.00,,,0.01,Wunderground v.1.15,2013-03-13 01:23:00,
2013-03-12 18:29:00,45.7,45.2,30.22,WNW,284,3.0,6.0,98,0.00,,,0.01,Wunderground v.1.15,2013-03-13 01:29:00,
2013-03-12 18:34:00,45.7,45.2,30.22,WNW,284,3.0,5.0,98,0.00,,,0.01,Wunderground v.1.15,2013-03-13 01:34:00,
2013-03-12 18:40:00,45.6,45.1,30.22,WNW,285,3.0,5.0,98,0.00,,,0.01,Wunderground v.1.15,2013-03-13 01:40:00,
2013-03-12 18:47:00,45.6,45.1,30.22,WNW,285,3.0,5.0,98,0.00,,,0.01,Wunderground v.1.15,2013-03-13 01:47:00,
2013-03-12 18:52:00,45.5,45.0,30.22,WNW,285,3.0,5.0,98,0.00,,,0.01,Wunderground v.1.15,2013-03-13 01:52:00,
2013-03-12 18:57:00,45.5,45.0,30.22,WNW,285,3.0,5.0,98,0.00,,,0.01,Wunderground v.1.15,2013-03-13 01:57:00,
2013-03-12 19:03:00,45.6,45.3,30.21,WNW,285,0.0,5.0,99,0.00,,,0.01,Wunderground v.1.15,2013-03-13 02:03:00,
2013-03-12 19:09:00,45.6,45.3,30.21,WNW,285,0.0,5.0,99,0.00,,,0.01,Wunderground v.1.15,2013-03-13 02:09:00,
2013-03-12 19:15:00,45.5,45.0,30.22,WNW,285,0.0,5.0,98,0.00,,,0.01,Wunderground v.1.15,2013-03-13 02:15:00,
2013-03-12 19:21:00,45.5,45.0,30.21,WNW,285,1.0,5.0,98,0.00,,,0.01,Wunderground v.1.15,2013-03-13 02:21:00,
2013-03-12 19:26:00,45.5,45.2,30.21,WNW,285,0.0,5.0,99,0.00,,,0.01,Wunderground v.1.15,2013-03-13 02:26:00,
2013-03-12 19:31:00,45.5,45.2,30.21,WNW,285,0.0,5.0,99,0.00,,,0.01,Wunderground v.1.15,2013-03-13 02:31:00,
2013-03-12 19:37:00,45.5,45.2,30.22,WNW,285,1.0,5.0,99,0.00,,,0.01,Wunderground v.1.15,2013-03-13 02:37:00,
2013-03-12 19:42:00,45.6,45.3,30.22,WNW,285,2.0,5.0,99,0.00,,,0.01,Wunderground v.1.15,2013-03-13 02:42:00,
2013-03-12 19:48:00,45.6,45.3,30.22,WNW,285,2.0,5.0,99,0.00,,,0.01,Wunderground v.1.15,2013-03-13 02:48:00,
2013-03-12 19:54:00,45.6,45.3,30.23,WNW,285,2.0,5.0,99,0.00,,,0.01,Wunderground v.1.15,2013-03-13 02:54:00,
2013-03-12 20:00:00,45.5,45.2,30.23,WNW,285,2.0,5.0,99,0.00,,,0.01,Wunderground v.1.15,2013-03-13 03:00:00,
2013-03-12 20:05:00,45.4,45.1,30.23,WNW,285,2.0,5.0,99,0.00,,,0.01,Wunderground v.1.15,2013-03-13 03:05:00,
2013-03-12 20:10:00,45.4,45.1,30.24,WNW,285,3.0,5.0,99,0.00,,,0.01,Wunderground v.1.15,2013-03-13 03:10:00,
2013-03-12 20:17:00,45.4,45.1,30.24,WNW,286,4.0,6.0,99,0.00,,,0.01,Wunderground v.1.15,2013-03-13 03:17:00,
2013-03-12 20:22:00,45.3,45.0,30.24,WNW,286,4.0,5.0,99,0.00,,,0.01,Wunderground v.1.15,2013-03-13 03:22:00,
2013-03-12 20:28:00,45.3,45.0,30.23,WNW,286,3.0,5.0,99,0.00,,,0.01,Wunderground v.1.15,2013-03-13 03:28:00,
2013-03-12 20:33:00,45.3,44.8,30.23,WNW,286,2.0,5.0,98,0.00,,,0.01,Wunderground v.1.15,2013-03-13 03:33:00,
2013-03-12 20:39:00,45.3,45.0,30.22,WNW,286,1.0,5.0,99,0.00,,,0.01,Wunderground v.1.15,2013-03-13 03:39:00,
2013-03-12 20:44:00,45.3,45.0,30.22,WNW,286,0.0,5.0,99,0.00,,,0.01,Wunderground v.1.15,2013-03-13 03:44:00,
2013-03-12 20:50:00,45.3,45.0,30.23,WNW,286,0.0,5.0,99,0.00,,,0.01,Wunderground v.1.15,2013-03-13 03:50:00,
2013-03-12 20:55:00,45.4,45.1,30.24,WNW,286,0.0,5.0,99,0.00,,,0.01,Wunderground v.1.15,2013-03-13 03:55:00,
2013-03-12 21:00:00,45.4,45.1,30.24,WNW,286,0.0,5.0,99,0.00,,,0.01,Wunderground v.1.15,2013-03-13 04:00:00,
2013-03-12 21:02:00,45.4,45.1,30.24,WNW,286,0.0,5.0,99,0.00,,,0.01,Wunderground v.1.15,2013-03-13 04:02:00,
2013-03-12 21:03:00,45.4,45.1,30.23,WNW,286,0.0,5.0,99,0.00,,,0.01,Wunderground v.1.15,2013-03-13 04:03:00,
2013-03-12 21:07:00,45.4,45.1,30.24,WNW,286,0.0,5.0,99,0.00,,,0.01,Wunderground v.1.15,2013-03-13 04:07:00,
2013-03-12 21:13:00,45.4,45.1,30.24,WNW,286,0.0,5.0,99,0.00,,,0.01,Wunderground v.1.15,2013-03-13 04:13:00,
2013-03-12 21:19:00,45.4,45.1,30.23,WNW,286,0.0,5.0,99,0.00,,,0.01,Wunderground v.1.15,2013-03-13 04:19:00,
2013-03-12 21:25:00,45.4,45.1,30.24,WNW,286,0.0,5.0,99,0.00,,,0.01,Wunderground v.1.15,2013-03-13 04:25:00,
2013-03-12 21:31:00,45.4,45.1,30.24,WNW,286,0.0,5.0,99,0.00,,,0.01,Wunderground v.1.15,2013-03-13 04:31:00,
2013-03-12 21:37:00,45.4,45.1,30.24,WNW,286,0.0,5.0,99,0.00,,,0.01,Wunderground v.1.15,2013-03-13 04:37:00,
2013-03-12 21:43:00,45.4,45.1,30.24,WNW,286,0.0,5.0,99,0.00,,,0.01,Wunderground v.1.15,2013-03-13 04:43:00,
2013-03-12 21:49:00,45.4,45.1,30.24,WNW,286,0.0,5.0,99,0.00,,,0.01,Wunderground v.1.15,2013-03-13 04:49:00,
2013-03-12 21:55:00,45.4,45.1,30.24,WNW,286,0.0,5.0,99,0.00,,,0.01,Wunderground v.1.15,2013-03-13 04:55:00,
2013-03-12 22:02:00,45.4,45.1,30.24,WNW,286,1.0,5.0,99,0.00,,,0.01,Wunderground v.1.15,2013-03-13 05:02:00,
2013-03-12 22:08:00,45.4,45.1,30.24,WNW,286,2.0,5.0,99,0.00,,,0.01,Wunderground v.1.15,2013-03-13 05:08:00,
2013-03-12 22:13:00,45.3,45.0,30.24,WNW,286,1.0,5.0,99,0.00,,,0.01,Wunderground v.1.15,2013-03-13 05:13:00,
2013-03-12 22:19:00,45.3,45.0,30.24,WNW,286,0.0,5.0,99,0.00,,,0.01,Wunderground v.1.15,2013-03-13 05:19:00,
2013-03-12 22:25:00,45.4,45.1,30.23,WNW,286,0.0,5.0,99,0.00,,,0.01,Wunderground v.1.15,2013-03-13 05:25:00,
2013-03-12 22:30:00,45.4,45.1,30.24,WNW,286,0.0,5.0,99,0.00,,,0.01,Wunderground v.1.15,2013-03-13 05:30:00,
2013-03-12 22:36:00,45.5,45.2,30.24,WNW,286,0.0,5.0,99,0.00,,,0.01,Wunderground v.1.15,2013-03-13 05:36:00,
2013-03-12 22:42:00,45.5,45.2,30.23,WNW,286,0.0,5.0,99,0.00,,,0.01,Wunderground v.1.15,2013-03-13 05:42:00,
2013-03-12 22:47:00,45.5,45.2,30.23,WNW,286,0.0,5.0,99,0.00,,,0.01,Wunderground v.1.15,2013-03-13 05:47:00,
2013-03-12 22:53:00,45.5,45.2,30.23,WNW,286,0.0,5.0,99,0.00,,,0.01,Wunderground v.1.15,2013-03-13 05:53:00,
2013-03-12 22:59:00,45.6,45.3,30.24,WNW,286,0.0,5.0,99,0.00,,,0.01,Wunderground v.1.15,2013-03-13 05:59:00,
2013-03-12 23:04:00,45.6,45.3,30.24,WNW,286,0.0,5.0,99,0.00,,,0.01,Wunderground v.1.15,2013-03-13 06:04:00,
2013-03-12 23:10:00,45.5,45.2,30.23,WNW,286,0.0,5.0,99,0.00,,,0.01,Wunderground v.1.15,2013-03-13 06:10:00,
2013-03-12 23:16:00,45.4,45.1,30.24,WNW,286,0.0,5.0,99,0.00,,,0.01,Wunderground v.1.15,2013-03-13 06:16:00,
2013-03-12 23:22:00,45.3,45.0,30.23,WNW,286,0.0,5.0,99,0.00,,,0.01,Wunderground v.1.15,2013-03-13 06:22:00,
2013-03-12 23:28:00,45.2,44.9,30.23,WNW,286,0.0,5.0,99,0.00,,,0.01,Wunderground v.1.15,2013-03-13 06:28:00,
2013-03-12 23:33:00,45.2,44.9,30.23,WNW,286,0.0,5.0,99,0.00,,,0.01,Wunderground v.1.15,2013-03-13 06:33:00,
2013-03-12 23:39:00,45.2,44.9,30.23,WNW,286,0.0,5.0,99,0.00,,,0.01,Wunderground v.1.15,2013-03-13 06:39:00,
2013-03-12 23:44:00,45.1,44.8,30.23,WNW,286,1.0,5.0,99,0.00,,,0.01,Wunderground v.1.15,2013-03-13 06:44:00,
2013-03-12 23:49:00,45.1,44.8,30.23,WNW,286,1.0,5.0,99,0.00,,,0.01,Wunderground v.1.15,2013-03-13 06:49:00,
2013-03-12 23:54:00,45.0,44.7,30.23,WNW,286,1.0,5.0,99,0.00,,,0.01,Wunderground v.1.15,2013-03-13 06:54:00,